JCSAT-3A

Last updated on Thu Oct 30 2025 00:02:47 GMT+0000 (Coordinated Universal Time)

1 29272U 06033A 25302.51936608 -.00000335 00000+0 00000+0 0 9994 2 29272 0.0181 273.9437 0002447 307.3870 131.7699 1.00270566 45422
UTC large
Height (km)
Speed (km/s)
/
Latitude / Longitude
Inclination (degrees)
Orbital Period (minutes)
Azimuth
Elevation
Range (km)
Doppler Factor

Next 0 passes for location: London (51.5072 / 0.1276)

Sorry there are no passes over London.